1485748800.26,7326,10.81,73608.3,-7.05,-38.91,-39.09,0,*62
1485748801.51,7327,10.81,73610.5,-7.05,-39.03,-39.09,0,*69
1485748802.76,7328,10.81,73612.0,-7.05,-39.03,-39.09,0,*66
1485748804.01,7329,10.81,73614.8,-7.05,-38.91,-39.09,0,*6D
1485748805.24,7330,10.81,73610.0,-7.05,-38.73,-38.85,0,*6C
1485748806.49,7331,10.81,73610.0,-7.05,-38.85,-38.91,0,*61
1485748807.76,7332,10.81,73610.5,-7.05,-39.03,-39.23,0,*65
1485748809.02,7333,10.81,73610.5,-7.05,-38.85,-38.91,0,*63
1485748810.24,7334,10.81,73610.3,-7.05,-38.73,-38.85,0,*68
1485748811.49,7335,10.81,73612.8,-7.03,-38.91,-38.91,0,*66
1485748812.75,7336,10.81,73610.8,-7.05,-39.09,-39.23,0,*6B
1485748813.98,7337,10.81,73610.8,-7.03,-39.09,-39.23,0,*6C
1485748815.2,7338,10.81,73608.0,-7.03,-39.09,-39.29,0,*69
1485748816.46,7339,10.81,73614.0,-7.05,-39.09,-39.23,0,*64
1485748817.73,7340,10.81,73612.0,-7.05,-39.23,-39.23,0,*62
1485748819.0,7341,10.81,73608.5,-7.05,-39.23,-39.29,0,*69
1485748820.24,7342,10.81,73610.3,-7.05,-39.41,-39.47,0,*66
1485748821.52,7343,10.81,73612.3,-7.05,-39.23,-39.29,0,*6B
1485748822.75,7344,10.81,73612.5,-7.03,-38.91,-39.09,0,*60
1485748824.02,7345,10.81,73610.5,-7.05,-39.03,-39.23,0,*65
1485748825.27,7346,10.81,73608.8,-7.05,-39.03,-39.09,0,*6E
1485748826.52,7347,10.81,73612.0,-7.03,-38.91,-39.03,0,*69
1485748827.79,7348,10.81,73610.3,-7.05,-38.91,-39.03,0,*60
1485748829.06,7349,10.81,73614.5,-7.05,-38.91,-39.23,0,*63
1485748830.33,7350,10.81,73608.5,-7.05,-39.23,-39.29,0,*69
1485748831.6,7351,10.81,73608.8,-7.05,-38.91,-39.03,0,*68
1485748832.85,7352,10.81,73610.0,-7.03,-39.23,-39.23,0,*67
1485748834.12,7353,10.81,73614.0,-7.05,-38.91,-39.03,0,*6A
1485748835.39,7354,10.81,73610.8,-7.05,-39.03,-39.03,0,*67
1485748836.62,7355,10.81,73610.5,-7.03,-38.85,-39.03,0,*6F
1485748837.87,7356,10.81,73610.8,-7.05,-39.03,-39.09,0,*6F
1485748839.1,7357,10.81,73614.0,-7.03,-39.03,-39.09,0,*68
1485748840.35,7358,10.81,73608.8,-7.05,-38.91,-39.09,0,*6B
1485748841.6,7359,10.81,73614.5,-7.03,-38.91,-38.91,0,*6C
1485748842.8,7360,10.81,73612.8,-7.03,-38.73,-38.85,0,*6F
1485748844.03,7361,10.81,73608.0,-7.03,-38.85,-39.03,0,*68
1485748845.26,7362,10.81,73612.0,-7.03,-38.73,-38.91,0,*68
1485748846.49,7363,10.81,73610.0,-7.03,-39.03,-39.09,0,*6F
1485748847.76,7364,10.81,73610.0,-7.05,-39.03,-39.03,0,*64
1485748849.0,7365,10.81,73610.0,-7.03,-38.91,-39.03,0,*69
1485748850.26,7366,10.81,73610.5,-7.05,-39.09,-39.23,0,*6E
1485748851.51,7367,10.81,73608.3,-7.05,-39.09,-39.29,0,*65
1485748852.78,7368,10.81,73610.0,-7.05,-39.29,-39.41,0,*66
1485748854.03,7369,10.81,73610.8,-7.03,-39.41,-39.59,0,*66
1485748855.28,7370,10.81,73612.0,-7.05,-39.09,-39.23,0,*69
1485748856.55,7371,10.81,73610.8,-7.05,-39.29,-39.41,0,*6E
1485748857.8,7372,10.81,73612.8,-7.03,-39.29,-39.41,0,*6B
1485748859.03,7373,10.81,73610.5,-7.03,-39.03,-39.09,0,*6E
1485748860.3,7374,10.81,73608.3,-7.05,-39.29,-39.29,0,*65
1485748861.57,7375,10.81,73612.0,-7.05,-39.03,-39.03,0,*64
1485748862.84,7376,10.81,73612.0,-7.05,-38.91,-39.03,0,*6D
1485748864.08,7377,10.81,73614.3,-7.05,-38.67,-38.73,0,*63
1485748865.28,7378,10.81,73610.5,-7.03,-38.73,-38.85,0,*66
1485748866.51,7379,10.81,73614.3,-7.03,-38.85,-39.03,0,*61
1485748867.76,7380,10.81,73610.0,-7.05,-38.85,-38.91,0,*6B
1485748869.01,7381,10.81,73612.5,-7.03,-39.03,-39.03,0,*69
1485748870.26,7382,10.81,73610.5,-7.03,-38.91,-38.91,0,*6A
1485748871.51,7383,10.81,73610.5,-7.03,-39.23,-39.29,0,*61
1485748872.76,7384,10.81,73608.8,-7.03,-39.03,-39.03,0,*6C
1485748874.01,7385,10.81,73608.8,-7.03,-39.23,-39.29,0,*67
1485748875.28,7386,10.81,73612.8,-7.05,-39.29,-39.29,0,*68
1485748876.55,7387,10.81,73614.3,-7.05,-38.91,-39.03,0,*63
1485748877.8,7388,10.81,73610.8,-7.03,-39.23,-39.29,0,*6A
1485748879.07,7389,10.81,73608.8,-7.05,-39.03,-39.03,0,*67
1485748880.28,7390,10.81,73612.3,-7.03,-39.09,-39.09,0,*69
1485748881.53,7391,10.81,73608.8,-7.03,-39.23,-39.29,0,*62
1485748882.76,7392,10.81,73608.8,-7.03,-39.03,-39.09,0,*61
1485748884.01,7393,10.81,73614.5,-7.03,-39.03,-39.03,0,*6A
1485748885.28,7394,10.81,73610.8,-7.05,-39.23,-39.23,0,*6B
1485748886.52,7395,10.81,73608.3,-7.03,-39.29,-39.23,0,*66
1485748887.79,7396,10.81,73608.8,-7.05,-39.23,-39.41,0,*6D
1485748889.04,7397,10.81,73608.5,-7.05,-38.91,-38.85,0,*6D
1485748890.29,7398,10.81,73610.3,-7.03,-39.03,-39.03,0,*61
1485748891.56,7399,10.81,73610.8,-7.05,-39.03,-39.03,0,*66
1485748892.77,7400,10.81,73610.5,-7.03,-39.09,-39.09,0,*67
1485748894.0,7401,10.81,73610.3,-7.03,-39.29,-39.09,0,*64
1485748895.21,7402,10.81,73608.5,-7.03,-39.09,-39.09,0,*65
1485748896.44,7403,10.81,73608.8,-7.03,-39.03,-39.09,0,*6E
1485748897.71,7404,10.81,73608.8,-7.05,-39.23,-39.23,0,*65
1485748898.96,7405,10.81,73606.0,-7.03,-39.23,-39.29,0,*68
1485748900.23,7406,10.81,73610.5,-7.05,-39.41,-39.29,0,*69
1485748901.48,7407,10.81,73608.8,-7.03,-39.29,-39.29,0,*60
1485748902.73,7408,10.81,73608.3,-7.05,-39.09,-39.23,0,*61
1485748903.96,7409,10.81,73612.3,-7.05,-39.09,-39.09,0,*68
1485748905.23,7410,10.81,73610.3,-7.05,-39.29,-39.29,0,*60
1485748906.45,7411,10.81,73610.5,-7.03,-39.41,-39.47,0,*61
1485748907.7,7412,10.81,73608.0,-7.03,-39.29,-39.41,0,*6A
1485748908.92,7413,10.81,73610.5,-7.03,-39.41,-39.47,0,*63
1485748910.19,7414,10.81,73608.5,-7.05,-39.03,-39.23,0,*66
1485748911.45,7415,10.81,73610.8,-7.05,-39.09,-39.29,0,*67
1485748912.69,7416,10.81,73608.3,-7.03,-39.29,-39.41,0,*6E
1485748913.96,7417,10.81,73610.3,-7.05,-39.03,-39.03,0,*67
1485748915.23,7418,10.81,73608.8,-7.05,-39.03,-39.23,0,*6A
1485748916.5,7419,10.81,73610.3,-7.05,-39.29,-39.29,0,*69
1485748917.73,7420,10.81,73608.0,-7.03,-39.09,-39.23,0,*6D
1485748919.0,7421,10.81,73610.8,-7.05,-39.23,-39.23,0,*62
1485748920.27,7422,10.81,73612.5,-7.05,-39.29,-39.29,0,*61
1485748921.48,7423,10.81,73608.8,-7.03,-39.09,-39.09,0,*66
1485748922.71,7424,10.81,73610.5,-7.03,-38.85,-38.91,0,*64
1485748923.97,7425,10.81,73608.3,-7.05,-39.03,-39.09,0,*6C
1485748925.19,7426,10.81,73612.0,-7.03,-39.09,-39.03,0,*69
1485748926.44,7427,10.81,73610.5,-7.03,-39.03,-39.23,0,*60
1485748927.69,7428,10.81,73608.8,-7.03,-39.41,-39.41,0,*6D
1485748928.94,7429,10.81,73610.8,-7.05,-39.09,-39.03,0,*60
1485748930.19,7430,10.81,73608.5,-7.05,-39.23,-39.09,0,*6A
1485748931.46,7431,10.81,73612.8,-7.05,-39.29,-39.23,0,*69
1485748932.71,7432,10.81,73610.3,-7.03,-39.41,-39.41,0,*66
1485748933.98,7433,10.81,73610.3,-7.05,-39.29,-39.29,0,*61
1485748935.25,7434,10.81,73606.8,-7.05,-39.23,-39.23,0,*66
1485748936.5,7435,10.81,73610.8,-7.03,-39.29,-39.41,0,*6F
1485748937.73,7436,10.81,73608.5,-7.07,-38.91,-39.09,0,*66
1485748938.96,7437,10.81,73608.5,-7.05,-39.09,-39.09,0,*65
1485748940.23,7438,10.81,73610.8,-7.05,-39.41,-39.41,0,*6A
1485748941.45,7439,10.81,73610.5,-7.03,-39.41,-39.47,0,*6B
1485748942.73,7440,10.81,73610.5,-7.05,-39.41,-39.41,0,*65
1485748943.99,7441,10.81,73608.5,-7.05,-39.29,-39.41,0,*6A
1485748945.24,7442,10.81,73608.0,-7.03,-39.41,-39.41,0,*61
1485748946.48,7443,10.81,73604.8,-7.05,-39.29,-39.47,0,*6E
1485748947.73,7444,10.81,73604.0,-7.05,-39.09,-39.23,0,*69
1485748948.98,7445,10.81,73610.0,-7.05,-39.09,-39.23,0,*68
1485748950.18,7446,10.81,73606.8,-7.03,-39.47,-39.47,0,*65
1485748951.44,7447,10.81,73608.0,-7.05,-39.23,-39.09,0,*6A
1485748952.71,7448,10.81,73608.5,-7.05,-39.23,-39.23,0,*6D
1485748953.98,7449,10.81,73608.0,-7.05,-39.41,-39.41,0,*6C
1485748955.22,7450,10.81,73608.5,-7.05,-39.41,-39.47,0,*62
1485748956.5,7451,10.81,73606.8,-7.05,-39.41,-39.59,0,*6C
1485748957.73,7452,10.81,73604.3,-7.05,-39.09,-39.09,0,*66
1485748959.01,7453,10.81,73606.0,-7.05,-39.23,-39.29,0,*6D
1485748960.25,7454,10.81,73608.3,-7.05,-39.41,-39.47,0,*66
1485748961.52,7455,10.81,73606.5,-7.05,-39.23,-39.23,0,*61
1485748962.75,7456,10.81,73612.0,-7.07,-39.09,-39.15,0,*6D
1485748963.97,7457,10.81,73604.8,-7.07,-39.35,-39.53,0,*61
1485748965.19,7458,10.81,73610.5,-7.07,-38.97,-39.29,0,*6A
1485748966.39,7459,10.81,73604.0,-7.07,-39.35,-39.47,0,*6A
1485748967.61,7460,10.81,73604.3,-7.07,-39.53,-39.65,0,*60
1485748968.81,7461,10.81,73610.3,-7.07,-39.47,-39.47,0,*64
1485748970.01,7462,10.81,73610.0,-7.07,-39.35,-39.47,0,*62
1485748971.26,7463,10.81,73610.0,-7.07,-39.53,-39.71,0,*66
1485748972.51,7464,10.81,73610.8,-7.07,-39.15,-39.29,0,*6E
1485748973.73,7465,10.81,73608.5,-7.07,-39.29,-39.35,0,*6D
1485748974.95,7466,10.81,73606.8,-7.07,-39.35,-39.53,0,*63
1485748976.22,7467,10.81,73608.5,-7.05,-39.23,-39.23,0,*60
1485748977.48,7468,10.81,73606.0,-7.05,-39.47,-39.59,0,*60
1485748978.72,7469,10.81,73608.8,-7.03,-39.23,-39.29,0,*62
1485748980.0,7470,10.81,73610.5,-7.05,-39.23,-39.23,0,*66
1485748981.27,7471,10.81,73608.5,-7.05,-39.03,-39.23,0,*65
1485748982.54,7472,10.81,73604.8,-7.05,-39.23,-39.23,0,*64
1485748983.79,7473,10.81,73610.8,-7.05,-39.03,-39.09,0,*6F
1485748985.04,7474,10.81,73606.5,-7.05,-39.09,-39.23,0,*6A
1485748986.31,7475,10.81,73608.5,-7.05,-39.23,-39.23,0,*63
1485748987.59,7476,10.81,73608.3,-7.05,-39.23,-39.29,0,*6A
1485748988.8,7477,10.81,73604.8,-7.07,-39.29,-39.35,0,*6E
1485748990.02,7478,10.81,73608.8,-7.07,-39.35,-39.53,0,*6C
1485748991.24,7479,10.81,73610.3,-7.07,-39.29,-39.35,0,*60
1485748992.46,7480,10.81,73608.8,-7.07,-39.47,-39.53,0,*6E
1485748993.66,7481,10.81,73608.0,-7.07,-39.35,-39.47,0,*6F
1485748994.88,7482,10.81,73604.8,-7.07,-39.29,-39.47,0,*61
1485748996.12,7483,10.81,73610.0,-7.09,-39.47,-39.53,0,*63
1485748997.4,7484,10.81,73608.3,-7.05,-39.41,-39.59,0,*64
1485748998.59,7485,10.81,73610.8,-7.07,-39.35,-39.35,0,*6E
1485748999.82,7486,10.81,73604.8,-7.07,-39.47,-39.53,0,*68
1485749001.02,7487,10.81,73606.5,-7.07,-39.09,-39.35,0,*63
1485749002.23,7488,10.81,73610.3,-7.07,-39.29,-39.35,0,*6E
1485749003.45,7489,10.81,73610.3,-7.07,-39.35,-39.53,0,*62
1485749004.67,7490,10.81,73606.8,-7.07,-39.29,-39.35,0,*67
1485749005.92,7491,10.81,73610.5,-7.07,-39.29,-39.29,0,*6B
1485749007.11,7492,10.81,73604.3,-7.07,-39.35,-39.35,0,*68
1485749008.36,7493,10.81,73610.8,-7.07,-39.29,-39.53,0,*64
1485749009.57,7494,10.81,73606.3,-7.07,-39.29,-39.35,0,*63
1485749010.83,7495,10.81,73608.0,-7.09,-39.09,-39.15,0,*6C
1485749012.05,7496,10.81,73604.0,-7.07,-39.35,-39.53,0,*6C
1485749013.28,7497,10.81,73602.8,-7.07,-39.09,-39.15,0,*60
1485749014.5,7498,10.81,73608.3,-7.09,-38.97,-38.97,0,*6C
1485749015.72,7499,10.81,73604.5,-7.09,-39.35,-39.47,0,*68
1485749016.95,7500,10.81,73608.0,-7.07,-39.47,-39.71,0,*67
1485749018.16,7501,10.81,73610.3,-7.09,-38.97,-38.97,0,*6D
1485749019.42,7502,10.81,73608.3,-7.07,-39.15,-39.29,0,*6F
1485749020.68,7503,10.81,73608.3,-7.07,-39.15,-39.15,0,*61
1485749021.87,7504,10.81,73610.8,-7.07,-39.47,-39.35,0,*63
1485749023.12,7505,10.81,73604.8,-7.07,-39.29,-39.29,0,*67
1485749024.34,7506,10.81,73604.8,-7.07,-39.29,-39.35,0,*69
1485749025.56,7507,10.81,73604.8,-7.07,-39.47,-39.53,0,*60
1485749026.82,7508,10.81,73606.8,-7.07,-39.15,-39.29,0,*65
1485749028.03,7509,10.81,73608.0,-7.07,-39.09,-39.09,0,*6B
1485749029.28,7510,10.81,73610.5,-7.07,-39.15,-39.29,0,*6C
1485749030.51,7511,10.81,73610.3,-7.09,-39.09,-39.09,0,*6C
1485749031.74,7512,10.81,73606.5,-7.07,-39.15,-39.35,0,*63
1485749032.93,7513,10.81,73606.3,-7.07,-39.35,-39.47,0,*65
1485749034.16,7514,10.81,73604.3,-7.07,-39.09,-39.29,0,*65
1485749035.36,7515,10.81,73608.5,-7.07,-39.35,-39.47,0,*63
1485749036.57,7516,10.81,73608.5,-7.09,-38.97,-38.97,0,*6B
1485749037.82,7517,10.81,73606.5,-7.07,-39.29,-39.15,0,*6B
1485749039.06,7518,10.81,73604.8,-7.05,-39.09,-39.09,0,*69
1485749040.28,7519,10.81,73610.0,-7.07,-38.79,-38.97,0,*6A
1485749041.48,7520,10.81,73610.5,-7.07,-38.97,-39.09,0,*66
1485749042.74,7521,10.81,73604.3,-7.07,-39.15,-39.29,0,*6E
1485749043.93,7522,10.81,73606.5,-7.07,-39.35,-39.35,0,*62
1485749045.18,7523,10.81,73604.0,-7.05,-39.41,-39.47,0,*67
1485749046.44,7524,10.81,73606.5,-7.05,-39.29,-39.41,0,*68
1485749047.69,7525,10.81,73604.8,-7.09,-39.47,-39.53,0,*6E
1485749048.92,7526,10.81,73604.8,-7.07,-39.09,-39.15,0,*6B
1485749050.14,7527,10.81,73610.5,-7.07,-39.29,-39.35,0,*6A
1485749051.33,7528,10.81,73608.0,-7.07,-39.35,-39.47,0,*6D
1485749052.59,7529,10.81,73606.3,-7.07,-39.15,-39.29,0,*66
1485749053.83,7530,10.81,73604.5,-7.09,-39.35,-39.53,0,*6F
1485749055.04,7531,10.81,73606.3,-7.07,-39.09,-39.09,0,*60
1485749056.27,7532,10.81,73606.8,-7.07,-39.09,-39.29,0,*61
1485749057.5,7533,10.81,73604.3,-7.05,-39.09,-39.09,0,*60
1485749058.76,7534,10.81,73606.5,-7.07,-39.15,-39.15,0,*65
1485749059.98,7535,10.81,73604.8,-7.07,-39.29,-39.35,0,*69
1485749061.21,7536,10.81,73604.5,-7.07,-39.09,-39.15,0,*6A
1485749062.4,7537,10.81,73606.3,-7.07,-38.97,-38.97,0,*66
1485749063.65,7538,10.81,73608.3,-7.05,-39.09,-39.23,0,*63
1485749064.93,7539,10.81,73604.0,-7.05,-38.91,-39.03,0,*60
1485749066.17,7540,10.81,73604.5,-7.05,-39.41,-39.47,0,*62
1485749067.44,7541,10.81,73608.3,-7.05,-38.91,-39.23,0,*6D
1485749068.69,7542,10.81,73610.0,-7.05,-39.09,-39.23,0,*6E
1485749069.94,7543,10.81,73604.5,-7.05,-39.09,-39.23,0,*6F
1485749071.16,7544,10.81,73606.8,-7.07,-39.35,-39.53,0,*62
1485749072.41,7545,10.81,73604.3,-7.05,-38.91,-39.09,0,*61
1485749073.69,7546,10.81,73606.8,-7.05,-39.23,-39.41,0,*66
1485749074.96,7547,10.81,73604.3,-7.05,-39.41,-39.59,0,*6A
1485749076.24,7548,10.81,73606.0,-7.05,-38.91,-38.91,0,*6C
1485749077.51,7549,10.81,73604.5,-7.05,-39.29,-39.29,0,*6D
1485749078.78,7550,10.81,73604.0,-7.05,-39.29,-39.29,0,*65
1485749080.03,7551,10.81,73606.8,-7.05,-39.03,-39.09,0,*6E
1485749081.27,7552,10.81,73600.5,-7.05,-39.41,-39.47,0,*61
1485749082.54,7553,10.81,73604.5,-7.05,-39.29,-39.41,0,*68
1485749083.79,7554,10.81,73608.0,-7.05,-39.41,-39.47,0,*67
1485749085.06,7555,10.81,73606.3,-7.05,-39.41,-39.41,0,*60
1485749086.31,7556,10.81,73606.5,-7.05,-39.09,-39.23,0,*6B
1485749087.56,7557,10.81,73606.3,-7.05,-39.41,-39.47,0,*64
1485749088.75,7558,10.81,73604.0,-7.03,-39.47,-39.47,0,*6B
1485749090.02,7559,10.81,73604.0,-7.05,-39.59,-39.65,0,*63
1485749091.29,7560,10.81,73602.8,-7.05,-39.41,-39.59,0,*6F
1485749092.54,7561,10.81,73606.8,-7.07,-39.53,-39.71,0,*65
1485749093.82,7562,10.81,73604.5,-7.09,-39.53,-39.71,0,*68
1485749095.04,7563,10.81,73606.8,-7.07,-39.53,-39.65,0,*62
1485749096.3,7564,10.81,73606.3,-7.07,-39.15,-39.15,0,*60
1485749097.53,7565,10.81,73606.0,-7.07,-39.09,-39.29,0,*63
1485749098.74,7566,10.81,73606.3,-7.07,-39.65,-39.65,0,*62
1485749099.96,7567,10.81,73606.0,-7.07,-39.47,-39.53,0,*66
1485749101.22,7568,10.88,73608.5,-7.09,-39.53,-39.65,0,*67
1485749102.47,7569,10.81,73604.0,-7.07,-39.15,-39.15,0,*6D
1485749103.72,7570,10.81,73604.8,-7.07,-39.29,-39.29,0,*65
1485749104.94,7571,10.81,73608.0,-7.07,-39.47,-39.53,0,*61
1485749106.16,7572,10.81,73606.0,-7.09,-39.35,-39.47,0,*6C
1485749107.36,7573,10.81,73606.5,-7.07,-39.47,-39.35,0,*63
1485749108.59,7574,10.81,73604.3,-7.05,-39.09,-39.09,0,*63
1485749109.79,7575,10.81,73604.0,-7.07,-39.47,-39.35,0,*65
1485749110.99,7576,10.88,73610.3,-7.07,-39.47,-39.65,0,*63
1485749112.19,7577,10.81,73606.5,-7.07,-39.35,-39.35,0,*62
1485749113.39,7578,10.81,73600.5,-7.07,-39.47,-39.47,0,*6D
1485749114.63,7579,10.81,73606.3,-7.09,-39.47,-39.53,0,*67
1485749115.89,7580,10.81,73604.8,-7.07,-39.15,-39.29,0,*65
1485749117.08,7581,10.81,73606.5,-7.07,-39.35,-39.47,0,*6E
1485749118.33,7582,10.81,73604.8,-7.05,-38.91,-39.09,0,*6A
1485749119.56,7583,10.81,73604.3,-7.07,-39.35,-39.29,0,*64
1485749120.77,7584,10.81,73606.3,-7.07,-39.29,-39.35,0,*63
1485749122.0,7585,10.81,73610.5,-7.07,-39.53,-39.65,0,*6A
1485749123.27,7586,10.81,73604.5,-7.05,-39.23,-39.29,0,*64
1485749124.47,7587,10.81,73606.3,-7.07,-39.35,-39.35,0,*6D
1485749125.66,7588,10.81,73606.3,-7.07,-39.35,-39.47,0,*67
1485749126.91,7589,10.81,73606.0,-7.07,-39.29,-39.29,0,*63
1485749128.1,7590,10.81,73604.5,-7.07,-39.35,-39.35,0,*6B
1485749129.3,7591,10.81,73608.3,-7.07,-39.35,-39.35,0,*6A
1485749130.49,7592,10.81,73604.3,-7.07,-39.35,-39.47,0,*6C
1485749131.71,7593,10.81,73606.8,-7.07,-39.35,-39.29,0,*65
1485749132.91,7594,10.81,73604.3,-7.07,-39.47,-39.47,0,*6F
1485749134.13,7595,10.81,73604.0,-7.07,-39.47,-39.53,0,*6B
1485749135.33,7596,10.81,73604.5,-7.07,-39.47,-39.47,0,*6D
1485749136.53,7597,10.81,73600.5,-7.07,-39.47,-39.47,0,*6C
1485749137.72,7598,10.81,73606.8,-7.07,-39.35,-39.47,0,*66
1485749138.92,7599,10.81,73608.0,-7.07,-39.47,-39.35,0,*67
1485749140.15,7600,10.81,73606.8,-7.07,-39.47,-39.71,0,*64
1485749141.4,7601,10.81,73604.8,-7.07,-39.53,-39.53,0,*60
1485749142.59,7602,10.81,73604.8,-7.07,-39.35,-39.35,0,*63
1485749143.81,7603,10.88,73608.5,-7.07,-39.47,-39.53,0,*67
1485749145.03,7604,10.81,73604.5,-7.07,-39.35,-39.53,0,*65
1485749146.29,7605,10.81,73606.5,-7.07,-39.71,-39.71,0,*64
1485749147.51,7606,10.81,73606.8,-7.09,-39.35,-39.47,0,*6C
1485749148.73,7607,10.81,73604.0,-7.07,-39.47,-39.53,0,*63
1485749149.96,7608,10.88,73610.0,-7.07,-39.53,-39.65,0,*6C
1485749151.21,7609,10.81,73606.0,-7.09,-39.65,-39.71,0,*63
1485749152.46,7610,10.81,73604.0,-7.07,-39.53,-39.71,0,*60
1485749153.68,7611,10.81,73604.0,-7.07,-39.29,-39.35,0,*6C
1485749154.93,7612,10.81,73604.5,-7.09,-39.15,-39.35,0,*6E
1485749156.18,7613,10.81,73606.5,-7.09,-39.47,-39.53,0,*68
1485749157.43,7614,10.81,73604.3,-7.09,-39.53,-39.65,0,*6F
1485749158.68,7615,10.81,73606.8,-7.09,-39.53,-39.65,0,*6E
1485749159.95,7616,10.81,73602.3,-7.09,-39.29,-39.29,0,*68
1485749161.23,7617,10.81,73604.5,-7.09,-39.15,-39.15,0,*69
1485749162.48,7618,10.81,73602.3,-7.07,-39.29,-39.29,0,*68
1485749163.7,7619,10.81,73604.5,-7.07,-39.47,-39.53,0,*6C
1485749164.98,7620,10.81,73604.0,-7.09,-39.15,-39.15,0,*6D
1485749166.26,7621,10.81,73606.8,-7.09,-39.53,-39.71,0,*6C
1485749167.5,7622,10.81,73606.0,-7.09,-39.47,-39.53,0,*6A
1485749168.73,7623,10.81,73604.5,-7.07,-39.47,-39.53,0,*65
1485749169.95,7624,10.81,73604.3,-7.07,-39.29,-39.35,0,*6A
1485749171.19,7625,10.81,73604.8,-7.07,-39.29,-39.29,0,*66
1485749172.47,7626,10.81,73606.8,-7.09,-39.29,-39.15,0,*64
1485749173.68,7627,10.81,73606.0,-7.09,-39.35,-39.47,0,*6F
1485749174.88,7628,10.81,73604.5,-7.07,-39.47,-39.47,0,*6B
1485749176.08,7629,10.81,73602.8,-7.07,-39.47,-39.35,0,*6F
1485749177.29,7630,10.81,73606.5,-7.07,-39.29,-39.35,0,*6F
1485749178.49,7631,10.81,73604.0,-7.07,-39.47,-39.47,0,*63
1485749179.74,7632,10.81,73602.8,-7.07,-39.29,-39.29,0,*60
1485749180.95,7633,10.88,73610.0,-7.07,-39.47,-39.65,0,*61
1485749182.14,7634,10.81,73606.3,-7.07,-39.47,-39.47,0,*66
1485749183.37,7635,10.81,73604.0,-7.07,-39.47,-39.53,0,*62
1485749184.59,7636,10.81,73602.3,-7.07,-39.47,-39.53,0,*61
1485749185.79,7637,10.81,73600.3,-7.07,-39.35,-39.47,0,*60
1485749187.03,7638,10.81,73604.0,-7.09,-39.47,-39.53,0,*61
1485749188.25,7639,10.81,73602.5,-7.07,-39.35,-39.53,0,*6B
1485749189.47,7640,10.81,73604.8,-7.09,-39.47,-39.47,0,*6B
1485749190.72,7641,10.81,73602.5,-7.07,-39.53,-39.71,0,*64
1485749191.95,7642,10.81,73602.8,-7.07,-39.53,-39.65,0,*62
1485749193.15,7643,10.81,73602.8,-7.07,-39.47,-39.47,0,*66
1485749194.37,7644,10.81,73604.0,-7.07,-39.35,-39.29,0,*6C
1485749195.6,7645,10.88,73606.3,-7.07,-39.47,-39.53,0,*65
1485749196.82,7646,10.81,73606.8,-7.07,-39.29,-39.35,0,*6E
1485749198.01,7647,10.81,73602.0,-7.07,-38.97,-39.09,0,*64
1485749199.23,7648,10.81,73604.5,-7.07,-39.29,-39.35,0,*60
1485749200.46,7649,10.81,73604.8,-7.09,-39.47,-39.65,0,*62
1485749201.69,7650,10.81,73602.5,-7.07,-39.47,-39.53,0,*61
1485749202.92,7651,10.81,73602.8,-7.07,-39.47,-39.71,0,*60
1485749204.15,7652,10.81,73604.0,-7.07,-39.65,-39.97,0,*6B
1485749205.37,7653,10.81,73602.8,-7.09,-39.35,-39.65,0,*6C
1485749206.62,7654,10.81,73604.5,-7.09,-39.53,-39.65,0,*6B
1485749207.84,7655,10.88,73608.0,-7.09,-39.35,-39.35,0,*6F
1485749209.09,7656,10.81,73604.5,-7.09,-39.09,-39.29,0,*6E
1485749210.34,7657,10.81,73602.8,-7.09,-39.15,-39.35,0,*6F
1485749211.55,7658,10.81,73604.8,-7.07,-39.47,-39.65,0,*6C
1485749212.77,7659,10.81,73606.8,-7.07,-39.47,-39.53,0,*68
1485749214.02,7660,10.81,73602.8,-7.09,-39.47,-39.53,0,*6C
1485749215.25,7661,10.81,73604.0,-7.07,-39.47,-39.53,0,*63
1485749216.5,7662,10.81,73604.8,-7.09,-39.53,-39.65,0,*6E
1485749217.72,7663,10.81,73604.5,-7.07,-39.47,-39.53,0,*61
1485749218.97,7664,10.81,73604.0,-7.07,-39.53,-39.71,0,*63
1485749220.22,7665,10.81,73602.3,-7.07,-39.29,-39.29,0,*62
1485749221.44,7666,10.81,73604.3,-7.09,-39.47,-39.47,0,*6F
1485749222.67,7667,10.81,73602.8,-7.07,-39.65,-39.71,0,*65
1485749223.95,7668,10.81,73602.3,-7.09,-39.15,-39.15,0,*61
1485749225.23,7669,10.81,73604.0,-7.09,-39.15,-39.29,0,*6F
1485749226.5,7670,10.81,73600.8,-7.09,-39.53,-39.71,0,*68
1485749227.71,7671,10.81,73606.5,-7.07,-39.65,-39.85,0,*69
1485749228.96,7672,10.81,73604.5,-7.09,-39.09,-39.15,0,*67
1485749230.21,7673,10.81,73606.5,-7.07,-38.91,-38.91,0,*65
1485749231.46,7674,10.81,73604.3,-7.09,-39.09,-39.29,0,*6E
1485749232.71,7675,10.81,73604.3,-7.09,-39.29,-39.35,0,*60
1485749233.93,7676,10.81,73602.8,-7.07,-39.35,-39.53,0,*60
1485749235.17,7677,10.81,73602.0,-7.09,-39.29,-39.47,0,*67
1485749236.42,7678,10.81,73604.3,-7.07,-39.15,-39.15,0,*6E
1485749237.64,7679,10.81,73602.8,-7.07,-39.29,-39.35,0,*62
1485749238.87,7680,10.81,73604.5,-7.07,-39.47,-39.53,0,*6C
1485749240.14,7681,10.88,73606.8,-7.09,-39.53,-39.71,0,*66
1485749241.36,7682,10.81,73606.8,-7.09,-39.47,-39.47,0,*65
1485749242.58,7683,10.81,73606.0,-7.09,-39.47,-39.35,0,*61
1485749243.84,7684,10.81,73606.5,-7.09,-39.65,-39.71,0,*66
1485749245.04,7685,10.81,73602.5,-7.07,-39.65,-39.65,0,*6C
1485749246.28,7686,10.81,73600.3,-7.09,-39.47,-39.65,0,*61
1485749247.51,7687,10.81,73604.5,-7.07,-39.65,-39.71,0,*6B
1485749248.76,7688,10.81,73602.0,-7.07,-39.53,-39.71,0,*61
1485749249.98,7689,10.81,73600.5,-7.07,-39.47,-39.53,0,*65
1485749251.21,7690,10.81,73602.0,-7.07,-39.47,-39.53,0,*6D
1485749252.46,7691,10.81,73600.0,-7.07,-39.15,-39.29,0,*66
1485749253.71,7692,10.81,73606.3,-7.07,-39.29,-39.29,0,*6A
1485749254.93,7693,10.81,73602.5,-7.07,-39.47,-39.53,0,*6E
1485749256.12,7694,10.81,73604.5,-7.07,-39.35,-39.35,0,*6C
1485749257.34,7695,10.81,73606.3,-7.09,-39.35,-39.47,0,*66
1485749258.55,7696,10.81,73600.0,-7.07,-39.47,-39.65,0,*6E
1485749259.82,7697,10.81,73606.8,-7.09,-39.53,-39.53,0,*61
1485749261.03,7698,10.81,73604.0,-7.07,-39.29,-39.35,0,*6D
1485749262.27,7699,10.81,73602.3,-7.09,-39.29,-39.35,0,*62
1485749263.52,7700,10.81,73606.3,-7.07,-39.53,-39.71,0,*60
1485749264.77,7701,10.81,73606.8,-7.07,-39.53,-39.53,0,*61
1485749265.99,7702,10.81,73604.3,-7.07,-39.47,-39.53,0,*67
1485749267.24,7703,10.81,73604.0,-7.09,-39.47,-39.53,0,*68
1485749268.49,7704,10.81,73604.3,-7.09,-39.65,-39.71,0,*6F
1485749269.72,7705,10.81,73604.3,-7.07,-39.65,-39.97,0,*68
1485749270.98,7706,10.88,73606.8,-7.09,-39.53,-39.65,0,*6D
1485749272.21,7707,10.81,73600.5,-7.09,-39.47,-39.65,0,*69
1485749273.46,7708,10.81,73606.0,-7.09,-39.85,-39.97,0,*65
1485749274.69,7709,10.81,73602.3,-7.07,-39.71,-39.85,0,*62
1485749275.94,7710,10.81,73606.5,-7.09,-39.47,-39.53,0,*6A
1485749277.19,7711,10.81,73602.8,-7.07,-39.71,-39.71,0,*60
1485749278.45,7712,10.81,73600.0,-7.09,-39.53,-39.65,0,*68
1485749279.67,7713,10.81,73604.8,-7.09,-39.47,-39.47,0,*6C
1485749280.91,7714,10.81,73602.8,-7.07,-39.29,-39.29,0,*65
1485749282.14,7715,10.81,73602.3,-7.07,-39.47,-39.53,0,*61
1485749283.36,7716,10.81,73600.5,-7.07,-39.47,-39.53,0,*62
1485749284.58,7717,10.81,73600.8,-7.07,-39.53,-39.85,0,*6D
1485749285.86,7718,10.81,73604.8,-7.09,-39.15,-39.15,0,*67
1485749287.13,7719,10.81,73606.8,-7.09,-39.29,-39.29,0,*66
1485749288.38,7720,10.81,73602.3,-7.09,-39.47,-39.53,0,*69
1485749289.63,7721,10.81,73602.0,-7.09,-39.35,-39.53,0,*6D
1485749290.85,7722,10.81,73606.3,-7.09,-39.47,-39.47,0,*6E
1485749292.1,7723,10.81,73602.8,-7.09,-39.85,-39.97,0,*6C
1485749293.32,7724,10.81,73600.8,-7.07,-39.35,-39.53,0,*66
1485749294.57,7725,10.81,73602.8,-7.07,-39.53,-39.71,0,*67
1485749295.82,7726,10.81,73600.8,-7.09,-39.71,-39.85,0,*61
1485749297.07,7727,10.81,73602.8,-7.07,-39.53,-39.53,0,*65
1485749298.26,7728,10.81,73604.5,-7.07,-39.47,-39.47,0,*6A
1485749299.52,7729,10.81,73602.0,-7.07,-39.15,-39.29,0,*64
1485749300.75,7730,10.81,73602.8,-7.09,-39.65,-39.65,0,*6D
1485749302.0,7731,10.81,73604.0,-7.07,-39.53,-39.53,0,*62
1485749303.22,7732,10.81,73604.8,-7.09,-39.65,-39.85,0,*61